Weather History for KMGJ - August, 2014

Change the Weather History Date:

Wednesday, August 27, 2014

  Actual Average (KPOU) Record (KPOU)
Temperature  
Mean Temperature 76 °F 69 °F  
Max Temperature 90 °F 81 °F 95 °F (1949)
Min Temperature 62 °F 58 °F 42 °F (1954)
Degree Days  
Heating Degree Days 0 1  
Month to date heating degree days 5  
Since 1 June heating degree days 59  
Since 1 July heating degree days 10  
Cooling Degree Days 11 0  
Month to date cooling degree days 183  
Year to date cooling degree days 586  
Since 1 June cooling degree days 550  
Growing Degree Days 26 (Base 50)    
Moisture  
Dew Point 65 °F    
Average Humidity 73    
Maximum Humidity 93    
Minimum Humidity 48    
Precipitation  
Precipitation 0.00 in 0.12 in 3.32 in (1971)
Month to date precipitation 3.75  
Year to date precipitation 30.33  
Sea Level Pressure  
Sea Level Pressure 29.96 in    
Wind  
Wind Speed 6 mph (SW)    
Max Wind Speed 13 mph    
Max Gust Speed 18 mph    
Visibility 10 miles    
Events      
T = Trace of Precipitation, MM = Missing Value Source: NWS Daily Summary

Daily Weather History Graph

Daily Weather History Graph

Search for Another Location

Airport or City:

Trip Planner

Search our weather history database for the weather conditions in past years. The results will help you decide how hot, cold, wet, or windy it might be!

Date:

Astronomy

Aug. 27, 2014 Rise Set
Actual Time 6:18 AM EDT 7:38 PM EDT
Civil Twilight 5:49 AM EDT 8:07 PM EDT
Nautical Twilight 5:14 AM EDT 8:41 PM EDT
Astronomical Twilight 4:38 AM EDT 9:17 PM EDT
Moon 8:13 AM EDT (8/27) 8:26 PM EDT (8/27)
Length of Visible Light 14h 17m
Length of Day
13h 20m
Waxing Crescent, 4% of the Moon is Illuminated
Aug 27
Waxing Crescent
Sep 2
First Quarter
Sep 8
Full
Sep 15
Last Quarter
Sep 24
New

Hourly Weather History & Observations

Time (EDT) Temp. Heat Index Dew Point Humidity Pressure Visibility Wind Dir Wind Speed Gust Speed Precip Events Conditions
1:54 AM 64.0 °F - 61.0 °F 90% 30.05 in 10.0 mi SW 4.6 mph - N/A   Clear
2:54 AM 63.0 °F - 61.0 °F 93% 30.04 in 10.0 mi SSW 3.5 mph - N/A   Clear
3:54 AM 63.0 °F - 61.0 °F 93% 30.03 in 10.0 mi West 3.5 mph - N/A   Clear
4:54 AM 62.1 °F - 60.1 °F 93% 30.02 in 10.0 mi WSW 4.6 mph - N/A   Clear
5:54 AM 62.1 °F - 60.1 °F 93% 30.03 in 10.0 mi SSW 5.8 mph - 0.00 in   Clear
6:54 AM 63.0 °F - 61.0 °F 93% 30.04 in 8.0 mi SSW 5.8 mph - N/A   Clear
7:54 AM 66.9 °F - 63.0 °F 87% 30.04 in 10.0 mi SSW 5.8 mph - N/A   Mostly Cloudy
8:54 AM 70.0 °F - 63.0 °F 78% 30.03 in 10.0 mi SSW 8.1 mph - N/A   Clear
9:54 AM 73.9 °F - 64.0 °F 71% 30.02 in 10.0 mi SW 8.1 mph - N/A   Mostly Cloudy
11:54 AM 84.9 °F 87.1 °F 66.0 °F 53% 29.98 in 10.0 mi SW 6.9 mph - N/A   Clear
12:54 PM 88.0 °F 90.7 °F 66.9 °F 49% 29.95 in 10.0 mi South 8.1 mph - N/A   Clear
1:54 PM 90.0 °F 93.6 °F 68.0 °F 48% 29.92 in 10.0 mi SSW 12.7 mph 18.4 mph N/A   Clear
2:54 PM 90.0 °F 93.6 °F 68.0 °F 48% 29.89 in 10.0 mi West 8.1 mph - N/A   Partly Cloudy
3:54 PM 89.1 °F 92.9 °F 68.0 °F 50% 29.87 in 10.0 mi SW 10.4 mph - N/A   Mostly Cloudy
4:54 PM 88.0 °F 91.4 °F 68.0 °F 51% 29.86 in 10.0 mi WSW 6.9 mph - N/A   Partly Cloudy
5:54 PM 86.0 °F 90.1 °F 69.1 °F 57% 29.87 in 10.0 mi SW 11.5 mph - N/A   Scattered Clouds
6:54 PM 87.1 °F 90.6 °F 68.0 °F 53% 29.87 in 10.0 mi NNW 9.2 mph - N/A   Scattered Clouds
7:54 PM 81.0 °F 83.8 °F 68.0 °F 65% 29.90 in 10.0 mi ENE 6.9 mph - N/A   Mostly Cloudy
8:54 PM 77.0 °F - 69.1 °F 76% 29.92 in 10.0 mi NNE 4.6 mph - N/A   Mostly Cloudy
9:54 PM 73.9 °F - 69.1 °F 85% 29.91 in 10.0 mi Calm Calm - N/A   Clear
10:54 PM 71.1 °F - 68.0 °F 90% 29.90 in 9.0 mi Calm Calm - N/A   Scattered Clouds
11:54 PM 73.0 °F - 68.0 °F 84% 29.90 in 8.0 mi NW 6.9 mph - N/A   Scattered Clouds